Weather History for Monroe, MI

Change the Weather History Date:

Thursday, February 27, 2014

  Actual Average Record
Temperature  
Mean Temperature 9 °F -  
Max Temperature 15 °F 39 °F 70 °F (1944)
Min Temperature 3 °F 23 °F -6 °F (1934)
Degree Days  
Heating Degree Days 56    
Moisture  
Dew Point -2 °F    
Average Humidity 57    
Maximum Humidity 86    
Minimum Humidity 37    
Precipitation  
Precipitation 0.00 in - - ()
Sea Level Pressure  
Sea Level Pressure 29.86 in    
Wind  
Wind Speed 16 mph (WNW)    
Max Wind Speed 23 mph    
Max Gust Speed 34 mph    
Visibility 8 miles    
Events Snow    
Averages and records for this station are not official NWS values.
T = Trace of Precipitation, MM = Missing Value Source: NWS Daily Summary

Daily Weather History Graph

Daily Weather History Graph

Search for Another Location

Airport:

Trip Planner

Search our weather history database for the weather conditions in past years. The results will help you decide how hot, cold, wet, or windy it might be!

Date:

Astronomy

Feb. 27, 2014 Rise Set
Actual Time 7:11 AM EST 6:21 PM EST
Civil Twilight 6:43 AM EST 6:49 PM EST
Nautical Twilight 6:11 AM EST 7:22 PM EST
Astronomical Twilight 5:39 AM EST 7:54 PM EST
Moon 5:44 AM EST (2/27) 4:45 PM EST (2/27)
Length of Visible Light 12h 05m
Length of Day
11h 09m
Waning Crescent, 4% of the Moon is Illuminated
Feb 27
Waning Crescent
Mar 1
New
Mar 8
First Quarter
Mar 16
Full
Mar 23
Last Quarter

Hourly Weather History & Observations

Time (EST) Temp. Windchill Dew Point Humidity Pressure Visibility Wind Dir Wind Speed Gust Speed Precip Events Conditions
12:15 AM 12.2 °F -5.8 °F 1.4 °F 62% 29.64 in 10.0 mi WSW 19.6 mph 27.6 mph N/A   Mostly Cloudy
12:35 AM 12.2 °F -5.8 °F 1.4 °F 62% 29.63 in 10.0 mi WSW 19.6 mph 28.8 mph N/A   Clear
12:56 AM 12.2 °F -4.8 °F 1.4 °F 62% 29.62 in 10.0 mi SW 17.3 mph - N/A   Clear
1:16 AM 12.2 °F -4.8 °F 1.4 °F 62% 29.61 in 10.0 mi WSW 17.3 mph 24.2 mph N/A   Clear
1:36 AM 12.2 °F -3.7 °F 3.2 °F 67% 29.59 in 10.0 mi SW 15.0 mph 23.0 mph N/A   Clear
1:56 AM 12.2 °F -3.7 °F 3.2 °F 67% 29.59 in 10.0 mi SW 15.0 mph 20.7 mph N/A   Clear
2:16 AM 12.2 °F -3.7 °F 3.2 °F 67% 29.57 in 10.0 mi SW 15.0 mph 19.6 mph N/A   Clear
2:36 AM 14.0 °F -1.4 °F 5.0 °F 67% 29.56 in 10.0 mi SW 15.0 mph 21.9 mph N/A   Scattered Clouds
2:56 AM 14.0 °F -2.5 °F 5.0 °F 67% 29.54 in 10.0 mi SW 17.3 mph 23.0 mph N/A   Scattered Clouds
3:16 AM 15.8 °F -1.1 °F 5.0 °F 62% 29.54 in 10.0 mi WSW 19.6 mph 25.3 mph N/A   Clear
3:36 AM 15.8 °F -1.5 °F 5.0 °F 62% 29.53 in 10.0 mi SW 20.7 mph 27.6 mph N/A   Scattered Clouds
3:57 AM 15.8 °F -1.1 °F 6.8 °F 68% 29.53 in 10.0 mi WSW 19.6 mph 25.3 mph N/A   Mostly Cloudy
4:17 AM 15.8 °F -1.1 °F 6.8 °F 68% 29.52 in 10.0 mi WSW 19.6 mph 25.3 mph N/A   Overcast
4:37 AM 15.8 °F -0.2 °F 8.6 °F 73% 29.52 in 7.0 mi WSW 17.3 mph 27.6 mph N/A   Overcast
4:52 AM 15.8 °F -1.5 °F 8.6 °F 73% 29.52 in 5.0 mi WSW 20.7 mph 28.8 mph N/A   Haze
5:12 AM 15.8 °F -0.2 °F 10.4 °F 79% 29.53 in 4.0 mi WSW 17.3 mph 27.6 mph N/A   Haze
5:32 AM 15.8 °F -0.6 °F 10.4 °F 79% 29.54 in 3.0 mi WSW 18.4 mph 24.2 mph N/A Snow Light Snow
5:52 AM 15.8 °F 2.1 °F 12.2 °F 86% 29.55 in 0.5 mi West 12.7 mph 25.3 mph N/A Snow Light Snow
6:12 AM 15.8 °F 1.4 °F 12.2 °F 86% 29.56 in 1.5 mi West 13.8 mph - N/A Snow Light Snow
6:32 AM 15.8 °F 0.9 °F 10.4 °F 79% 29.57 in 10.0 mi WNW 15.0 mph 20.7 mph N/A   Overcast
6:52 AM 15.8 °F -1.5 °F 8.6 °F 73% 29.59 in 2.0 mi WNW 20.7 mph 29.9 mph N/A Snow Light Snow
7:12 AM 15.8 °F -1.1 °F 8.6 °F 73% 29.60 in 2.0 mi WNW 19.6 mph 27.6 mph N/A Snow Light Snow
7:33 AM 14.0 °F -2.0 °F 3.2 °F 62% 29.62 in 5.0 mi WNW 16.1 mph 26.5 mph N/A   Haze
7:53 AM 14.0 °F -3.4 °F 3.2 °F 62% 29.64 in 7.0 mi WNW 19.6 mph 27.6 mph N/A   Mostly Cloudy
8:13 AM 12.2 °F -7.1 °F 1.4 °F 62% 29.66 in 2.0 mi WNW 23.0 mph 32.2 mph N/A Snow Light Snow
8:33 AM 12.2 °F -6.3 °F -0.4 °F 57% 29.68 in 5.0 mi WNW 20.7 mph 27.6 mph N/A   Haze
8:53 AM 12.2 °F -5.8 °F -0.4 °F 57% 29.70 in 10.0 mi WNW 19.6 mph 25.3 mph N/A   Clear
9:13 AM 12.2 °F -3.7 °F 1.4 °F 62% 29.72 in 7.0 mi NW 15.0 mph 27.6 mph N/A   Mostly Cloudy
9:33 AM 12.2 °F -3.7 °F 5.0 °F 73% 29.75 in 1.2 mi WNW 15.0 mph 28.8 mph N/A Snow Light Snow
9:53 AM 12.2 °F -7.1 °F 3.2 °F 67% 29.76 in 3.0 mi NW 23.0 mph 27.6 mph N/A Snow Light Snow
10:13 AM 8.6 °F -11.9 °F 3.2 °F 79% 29.80 in 0.2 mi NNW 23.0 mph 34.5 mph N/A Snow Snow
10:34 AM 8.6 °F -10.0 °F -0.4 °F 67% 29.83 in 1.2 mi NNW 18.4 mph 28.8 mph N/A Snow Light Snow
10:54 AM 8.6 °F -11.0 °F -2.2 °F 62% 29.85 in 1.8 mi NW 20.7 mph 25.3 mph N/A   Haze
11:14 AM 10.4 °F -9.1 °F -2.2 °F 57% 29.87 in 10.0 mi NW 21.9 mph 29.9 mph N/A   Scattered Clouds
11:34 AM 10.4 °F -8.6 °F -7.6 °F 44% 29.88 in 10.0 mi NW 20.7 mph 28.8 mph N/A   Mostly Cloudy
11:54 AM 10.4 °F -8.2 °F -5.8 °F 48% 29.89 in 7.0 mi WNW 19.6 mph 29.9 mph N/A   Mostly Cloudy
12:14 PM 10.4 °F -8.6 °F -11.2 °F 37% 29.91 in 7.0 mi WNW 20.7 mph 31.1 mph N/A   Scattered Clouds
12:34 PM 10.4 °F -8.6 °F -9.4 °F 41% 29.93 in 10.0 mi NW 20.7 mph 31.1 mph N/A   Mostly Cloudy
12:54 PM 10.4 °F -6.0 °F -7.6 °F 44% 29.94 in 10.0 mi WNW 15.0 mph 26.5 mph N/A   Mostly Cloudy
1:14 PM 10.4 °F -7.7 °F -7.6 °F 44% 29.95 in 10.0 mi NW 18.4 mph 27.6 mph N/A   Mostly Cloudy
1:35 PM 10.4 °F -7.7 °F -7.6 °F 44% 29.96 in 10.0 mi WNW 18.4 mph 31.1 mph N/A   Scattered Clouds
1:55 PM 10.4 °F -7.7 °F -5.8 °F 48% 29.97 in 10.0 mi WNW 18.4 mph 26.5 mph N/A   Mostly Cloudy
2:15 PM 10.4 °F -5.4 °F -2.2 °F 57% 29.99 in 7.0 mi NW 13.8 mph - N/A   Overcast
2:35 PM 10.4 °F -6.0 °F -2.2 °F 57% 30.00 in 7.0 mi NW 15.0 mph 20.7 mph N/A   Mostly Cloudy
2:55 PM 10.4 °F -5.4 °F -7.6 °F 44% 30.01 in 10.0 mi NW 13.8 mph 20.7 mph N/A   Clear
3:15 PM 10.4 °F -7.2 °F -7.6 °F 44% 30.01 in 10.0 mi West 17.3 mph 23.0 mph N/A   Clear
3:35 PM 12.2 °F -3.1 °F -7.6 °F 41% 30.02 in 10.0 mi WNW 13.8 mph - N/A   Clear
3:55 PM 10.4 °F -7.7 °F -5.8 °F 48% 30.03 in 10.0 mi WNW 18.4 mph 21.9 mph N/A   Clear
4:15 PM 12.2 °F -5.3 °F -7.6 °F 41% 30.04 in 10.0 mi West 18.4 mph 21.9 mph N/A   Clear
4:35 PM 10.4 °F -4.8 °F -9.4 °F 41% 30.04 in 10.0 mi NW 12.7 mph 17.3 mph N/A   Clear
4:55 PM 10.4 °F -4.8 °F -11.2 °F 37% 30.05 in 10.0 mi NW 12.7 mph 19.6 mph N/A   Scattered Clouds
5:16 PM 10.4 °F -4.1 °F -11.2 °F 37% 30.06 in 10.0 mi NW 11.5 mph - N/A   Clear
5:36 PM 10.4 °F -4.8 °F -11.2 °F 37% 30.07 in 10.0 mi NW 12.7 mph 17.3 mph N/A   Clear
5:56 PM 10.4 °F -4.1 °F -11.2 °F 37% 30.09 in 10.0 mi NW 11.5 mph - N/A   Clear
6:16 PM 10.4 °F -1.5 °F -11.2 °F 37% 30.09 in 10.0 mi NW 8.1 mph - N/A   Clear
6:36 PM 8.6 °F -4.7 °F -11.2 °F 40% 30.09 in 10.0 mi NW 9.2 mph - N/A   Clear
6:56 PM 8.6 °F -2.6 °F -9.4 °F 44% 30.10 in 10.0 mi NW 6.9 mph - N/A   Clear
7:16 PM 8.6 °F - -9.4 °F 44% 30.11 in 10.0 mi Calm Calm - N/A   Clear
7:36 PM 8.6 °F - -9.4 °F 44% 30.12 in 10.0 mi Calm Calm - N/A   Clear
7:56 PM 6.8 °F - -9.4 °F 48% 30.13 in 10.0 mi Calm Calm - N/A   Clear
8:17 PM 6.8 °F - -7.6 °F 52% 30.14 in 10.0 mi Calm Calm - N/A   Clear
8:37 PM 6.8 °F - -7.6 °F 52% 30.14 in 10.0 mi Calm Calm - N/A   Clear
8:52 PM 6.8 °F - -7.6 °F 52% 30.15 in 10.0 mi Calm Calm - N/A   Clear
9:12 PM 6.8 °F - -7.6 °F 52% 30.15 in 10.0 mi Calm Calm - N/A   Clear
9:32 PM 6.8 °F - -7.6 °F 52% 30.16 in 10.0 mi Calm Calm - N/A   Clear
9:52 PM 5.0 °F - -9.4 °F 52% 30.17 in 10.0 mi Calm Calm - N/A   Clear
10:12 PM 5.0 °F - -7.6 °F 56% 30.17 in 10.0 mi Calm Calm - N/A   Clear
10:32 PM 5.0 °F - -7.6 °F 56% 30.18 in 10.0 mi Calm Calm - N/A   Clear
10:52 PM 5.0 °F - -7.6 °F 56% 30.18 in 10.0 mi Calm Calm - N/A   Clear
11:12 PM 5.0 °F - -7.6 °F 56% 30.18 in 10.0 mi Calm Calm - N/A   Clear
11:33 PM 3.2 °F - -5.8 °F 66% 30.19 in 10.0 mi Calm Calm - N/A   Clear
11:53 PM 3.2 °F - -5.8 °F 66% 30.19 in 10.0 mi Calm Calm - N/A   Clear